Activity Log for May, 03 2019

Back to Activity Log Search


Incident Time Nature Address
19F049725 00:00:30 44LM 29XX SCHELE AVE
19F049726 00:02:41 30 TRAFFIC STOP WINTER ST & E PONTIAC ST
19F049728 00:03:04 51,35 IP 16XX PEMBERTON DR
19F049729 00:03:26 40A AUDIBLE 32XX N CLINTON ST
19F049727 00:03:27 48,36 39XX OLD MILL RD
19F049730 00:06:55 48,35 51XX HOLTON AVE
19F049731 00:08:50 96JO 41XX S LAFAYETTE ST
19F049732 00:11:28 30 TRAFFIC STOP TENNESSEE AVE & GRISWOLD DR
19F049733 00:13:13 48,36 CENTRAL DR & E PONTIAC ST
19F049734 00:16:04 39JO WELWYN CT & WAKEFIELD AVE
19F049736 00:20:17 43 DISTURBANCE 60XX S HANNA ST
19F049735 00:20:55 30 TRAFFIC STOP S ANTHONY BLVD & OXFORD ST
19F049737 00:21:57 30 TRAFFIC STOP TAYLOR ST & BROADWAY
19F049738 00:21:58 48,35 54XX ST JOE RD
19F049739 00:27:07 30 TRAFFIC STOP HOBSON RD & LAKE AVE
19F049740 00:34:19 30 TRAFFIC STOP S ANTHONY BLVD & E PONTIAC ST
19F049741 00:34:51 30 TRAFFIC STOP ALEXANDER ST & DREXEL AVE
19F049742 00:35:32 48,36 S HANNA ST & E SHERWOOD TER
19F049743 00:40:27 44LM 37XX E WASHINGTON BLVD
19F049744 00:41:47 30 TRAFFIC STOP BOWSER AVE & E CREIGHTON AVE
19F049746 00:46:12 43 DISTURBANCE 10XX W COLISEUM BLVD
19F049745 00:47:10 30 TRAFFIC STOP E RUDISILL BLVD & S BARR ST
19F049748 00:47:24 EMS 34XX CHEVIOT DR
19F049747 00:48:47 40A AUDIBLE 57XX ST JOE RD
19F049749 00:48:55 48,36 24XX W JEFFERSON BLVD
19F049751 00:53:52 EMS 59XX DECATUR RD
19F049752 00:59:44 48,36 19XX N CLINTON ST
19F049753 01:03:10 108 FOLLOWUP 29XX GOSHEN RD
19F049755 01:05:07 EMS 33XX DIPLOMAT DR
19F049754 01:05:17 48,36 19XX N CLINTON ST
19F049757 01:07:48 63 CONTACT W JEFFERSON BLVD & S HARRISON ST
19F049756 01:09:15 14 WARRANT 29XX GOSHEN RD
19F049758 01:26:58 44 NUISANCE 10XX N COLISEUM BLVD
19F049759 01:28:32 96IP 45XX OLIVER ST
19F049760 01:37:24 30 TRAFFIC STOP FAIRFIELD AVE & W PACKARD AVE
19F049761 01:39:16 63 CONTACT 24XX CASS ST
19F049762 01:43:58 30 TRAFFIC STOP HOME AVE & SOUTHWAYNE AVE
19F049763 01:58:10 48,36 W CREIGHTON AVE & BROADWAY
19F049764 02:12:06 30 TRAFFIC STOP S ANTHONY BLVD & ECKART ST
19F049765 02:15:59 EMS 28XX WAYNEDALE BLVD
19F049766 02:17:19 EMS 13XX WALL ST
19F049767 02:19:29 30 TRAFFIC STOP E PONTIAC ST & S ANTHONY BLVD
19F049768 02:19:40 43 DISTURBANCE S CLINTON ST & E RUDISILL BLVD
19F049769 02:27:33 51IP 17XX APPLE GLEN BLVD
19F049770 02:33:30 103 UNWANTED 1XX E BRANNING AVE
19F049772 02:34:42 102,TX THREATS 41XX W FERGUSON RD
19F049771 02:36:22 30 TRAFFIC STOP S ANTHONY BLVD & E HOLLIS LN
19F049773 02:40:47 53 ARMED ROB E RUDISILL BLVD & S BARR ST
19F049774 02:50:07 30 TRAFFIC STOP SOUTHPARK DR & BAXTER ST
19F049775 02:54:47 30 TRAFFIC STOP WARSAW ST & E RUDISILL BLVD
19F049776 02:55:46 48 SUSPICIOUS 29XX SIMCOE DR
19F049777 03:17:26 102 THREATS 63XX WINTER ST
19F049778 03:42:01 40A AUDIBLE 61XX STELLHORN RD
19F049779 04:17:17 27 RECKLESS DRI 19XX I 469 SB
19F049780 04:26:52 46,96 51XX COVENTRY PKWY
19F049781 04:33:31 44 NUISANCE 65XX ALVAREZ DR
19F049784 04:37:54 ATL 33XX MCKINNIE AVE
19F049782 04:39:18 15 ASSIST 51XX JOAN DR
19F049783 04:44:08 66 MENTALLY ILL 59XX BUNT DR
19F049785 04:54:44 25 PD ACCIDENT LIMA RD & W DUPONT RD
19F049786 04:55:05 48,36 15XX E PAULDING RD
19F049787 05:02:41 40A AUDIBLE 7XX E DUPONT RD
19F049788 05:12:12 EMS 29XX WESTBROOK DR
19F049789 05:26:58 103 UNWANTED 19XX BROADWAY
19F049790 05:38:37 911 HANG UP 32XX DIPLOMAT DR
19F049791 05:56:48 40A AUDIBLE 25XX TAYLOR ST
19F049792 06:11:00 EMS 76XX SCARLET CT
19F049793 06:24:35 48 SUSPICIOUS 9XX PAPE AVE
19F049794 06:29:32 40A AUDIBLE 21XX S HANNA ST
19F049795 06:36:44 25 PD ACCIDENT 38XX S CALHOUN ST
19F049796 06:40:59 15 ASSIST 6XX TENNESSEE AVE
19F049797 06:47:03 40A AUDIBLE 10XX S THOMAS RD
19F049798 06:54:10 34 TRAFF HAZARD BLUFFTON RD & WINCHESTER RD
19F049799 06:55:50 55 FIGHT 34XX N ANTHONY BLVD
19F049800 06:58:22 22I JUV INVEST 17XX HOBSON RD
19F049801 07:02:13 27 RECKLESS DRI 12XX E WASHINGTON CENTER RD
19F049802 07:10:34 1 MEET 41XX W FERGUSON RD
19F049803 07:13:00 46,96 13XX OAK BAY RUN
19F049805 07:19:22 18 WORK TRAFFIC WELLS ST & THIRD ST
19F049804 07:19:45 18 WORK TRAFFIC S ANTHONY BLVD & OXFORD ST
19F049806 07:38:41 22I JUV INVEST 29XX ENGLE RD
19F049807 07:45:43 40H HOLDUP ALRM 27XX CRESCENT AVE
19F049808 07:47:22 46 DOMESTIC 9XX BURGESS ST
19F049810 07:51:23 ATL W JEFFERSON BLVD & GETZ RD
19F049809 07:52:39 111I INJURED S CLINTON ST & E TABER ST
19F049811 07:57:44 48,36 302XX I 69 SB
19F049812 08:00:22 129 18XX LAKEWOOD DR
19F049813 08:05:27 911 HANG UP 9XX ELMER AVE
19F049814 08:06:26 43 DISTURBANCE 37XX E WASHINGTON BLVD
19F049815 08:08:43 48 SUSPICIOUS E WASHINGTON BLVD & S ANTHONY BLVD
19F049816 08:13:36 108 FOLLOWUP 4XX ELMER AVE
19F049817 08:27:12 26 PI ACCIDENT N COLISEUM BLVD & E STATE BLVD
19F049818 08:28:16 30 TRAFFIC STOP 9XX HOME AVE
19F049821 08:33:05 43 DISTURBANCE 21XX ST MARYS AVE
19F049822 08:45:00 40A AUDIBLE 64XX WINCHESTER RD
19F049826 08:47:19 25HS HIT SKIP 2XX COUNTRY FOREST DR
19F049823 08:47:35 18 WORK TRAFFIC 55XX W US 30
19F049824 08:47:55 102,TX THREATS 1XX E DEWALD ST
19F049825 08:50:47 48 SUSPICIOUS 2XX E MAIN ST
19F049827 09:07:55 101 OPEN DOOR 14XX WALL ST
19F049828 09:08:40 48 SUSPICIOUS 35XX BROADWAY
19F049829 09:10:11 129 16XX CASS ST
19F049830 09:13:14 103 UNWANTED 30XX HOLTON AVE
19F049831 09:23:25 48 SUSPICIOUS 9XX COLUMBIA AVE
19F049832 09:26:40 67 INDECENT 10XX COLUMBIA AVE
19F049834 09:29:04 39 STOLEN VEHIC 4XX W DEWALD ST
19F049838 09:38:30 46 DOMESTIC 20XX HOBSON RD
19F049835 09:39:54 51 THEFT 4XX ARCADIA CT
19F049836 09:40:29 29 SPECIAL ASGN 67XX COVINGTON RD
19F049839 09:51:28 50IP BURG I/P 12XX SUMMIT ST
19F049840 09:53:06 33,34 LIMA RD & BROADMOOR AVE
19F049841 09:58:14 48 SUSPICIOUS 9XX LIBRARY PLAZA
19F049845 10:04:25 51 THEFT 3XX W BERRY ST
19F049843 10:06:42 HARASSMENT 33XX VESEY AVE
19F049846 10:12:13 911 HANG UP 102XX COLDWATER RD
19F049847 10:18:01 26 PI ACCIDENT W STATE BLVD & WELLS ST
19F049850 10:18:05 50,ATTEMPTED 39XX N CLINTON ST
19F049849 10:19:45 66 MENTALLY ILL 7XX BROADWAY
19F049848 10:20:13 39R STOLEN RECO FAIRFIELD AVE & W CREIGHTON AVE
19F049851 10:24:46 43 DISTURBANCE 61XX STELLHORN RD
19F049852 10:29:37 51JO 39XX S ANTHONY BLVD
19F049853 10:31:06 17 MOTOR CHECK 68XX KIRKDALE DR
19F049855 10:31:19 25HS HIT SKIP W COLISEUM BLVD & EXECUTIVE BLVD
19F049854 10:34:30 99 NARCOTICS XX E MAIN ST
19F049856 10:38:54 30 TRAFFIC STOP 311XX I 69 SB
19F049857 10:40:11 96 BATTERY 10XX E COOK RD
19F049863 10:40:27 14 WARRANT 4XX W BRANNING AVE
19F049858 10:41:19 26PP PINNED E WAYNE ST & S CLINTON ST
19F049859 10:44:48 108 FOLLOWUP 8XX E COLISEUM BLVD
19F049862 10:45:13 108 FOLLOWUP 42XX LAKE AVE
19F049861 10:49:03 22I JUV INVEST 49XX VANCE AVE
19F049864 10:56:34 22I JUV INVEST 70XX COLDWATER RD
19F049865 10:56:54 25 PD ACCIDENT E COLISEUM BLVD & VANCE AVE
19F049872 10:59:02 14 WARRANT 30XX LILLIE ST
19F049867 11:04:48 51 THEFT 26XX E STATE BLVD
19F049868 11:06:00 14S SERVING WAR 18XX W DUPONT RD
19F049869 11:06:31 37 PARKING VIOL 54XX TOMAHAWK TRL
19F049870 11:09:49 129 74XX ANTEBELLUM BLVD
19F049871 11:10:13 51 THEFT 15XX NORTHBROOK BLVD
19F049873 11:12:36 46 DOMESTIC 37XX S ANTHONY BLVD
19F049874 11:15:05 40 ALARM 12XX PROGRESS RD
19F049885 11:19:40 39 STOLEN VEHIC 50XX DECATUR RD
19F049875 11:19:48 34 TRAFF HAZARD W WALLEN RD & LIMA RD
19F049881 11:21:34 63 CONTACT 29XX S HANNA ST
19F049876 11:21:59 46,96 64XX SPY GLASS RUN
19F049877 11:23:36 15 ASSIST 33XX ACADEMIC PL
19F049879 11:24:07 46,62 4XX W PAULDING RD
19F049878 11:24:25 129 74XX TIPPERARY TRL
19F049880 11:28:54 65T SUICIDE THR 43XX SMITH ST
19F049882 11:30:59 40 ALARM 22XX BRAEMAR DR
19F049883 11:35:13 46,96 27XX W COLISEUM BLVD
19F049887 11:35:57 102 THREATS 30XX W COLISEUM BLVD
19F049884 11:41:05 14 WARRANT 21XX HOBSON RD
19F049889 11:44:39 63 CONTACT 10XX STOPHLET ST
19F049888 11:45:44 63 CONTACT 14XX ST JOSEPH BLVD
19F049886 11:45:59 23 VANDALISM 37XX S ANTHONY BLVD
19F049890 11:50:16 30 TRAFFIC STOP BURGESS ST & SHERMAN BLVD
19F049891 11:53:26 40A AUDIBLE 103XX MONTICELLO BLVD
19F049892 11:57:57 103 UNWANTED 42XX W JEFFERSON BLVD
19F049893 12:03:40 48 SUSPICIOUS 46XX COLDWATER RD
19F049894 12:07:33 39R STOLEN RECO 75XX DECATUR RD
19F049895 12:07:52 25HS HIT SKIP 50XX DECATUR RD
19F049896 12:09:41 38 LOST/STOLEN 15XX S CALHOUN ST
19F049897 12:10:24 46 DOMESTIC 30XX ST LOUIS AVE
19F049898 12:12:22 46 DOMESTIC 21XX THOMPSON AVE
19F049901 12:12:29 18 WORK TRAFFIC DUPONT PLAZA DR & PARKVIEW PLAZA D
19F049899 12:13:52 65T SUICIDE THR 3XX W SUPERIOR ST
19F049900 12:16:09 30 TRAFFIC STOP SPY RUN AVE & BALTES AVE
19F049902 12:17:43 51 THEFT 62XX MANCHESTER DR
19F049903 12:23:12 43 DISTURBANCE 57XX DECATUR RD
19F049904 12:26:33 63 CONTACT 315XX I 69 NB
19F049905 12:32:15 22RC RECOVERY 70XX COLDWATER RD
19F049906 12:41:10 103 UNWANTED 9XX E WASHINGTON BLVD
19F049907 12:41:26 103 UNWANTED 35XX W COLISEUM BLVD
19F049914 12:41:31 17 MOTOR CHECK 3XX E HOOVER DR
19F049908 12:44:19 101 OPEN DOOR 17XX WOODLAND XING
19F049909 12:47:49 25 PD ACCIDENT 64XX W JEFFERSON BLVD
19F049910 12:48:29 43 DISTURBANCE 8XX MILDRED AVE
19F049913 12:53:35 47 REMOVE ITEMS 58XX KELSO LN
19F049911 12:53:49 EMS 1XX W MAIN ST
19F049916 13:01:14 33J LOCKED OUT 101XX WOODLAND PLAZA CV
19F049915 13:02:14 14 WARRANT 32XX E WASHINGTON BLVD
19F049917 13:07:34 17 MOTOR CHECK 19XX N CLINTON ST
19F049918 13:07:46 32A DEATH NOTIF 16XX BUCKSKIN DR
19F049919 13:09:49 44 NUISANCE 3XX W DARROW AVE
19F049920 13:13:58 40H HOLDUP ALRM 75XX MAPLECREST RD
19F049921 13:15:01 51 THEFT 10XX LOWER HUNTINGTON RD
19F049923 13:17:26 46 DOMESTIC 46XX TRIERWOOD PARK DR
19F049922 13:17:49 30 TRAFFIC STOP HESSEN CASSEL RD & CONGRESS AVE
19F049924 13:17:55 40P PANIC ALARM 79XX DECATUR RD
19F049925 13:22:39 22I JUV INVEST 2XX E COLISEUM BLVD
19F049935 13:24:57 63 CONTACT 52XX STONEHEDGE BLVD
19F049928 13:25:24 47 REMOVE ITEMS 7XX POPLAR ST
19F049940 13:27:40 39U UNAUTHORIZE 36XX LIMA RD
19F049926 13:29:33 43 DISTURBANCE 2XX E RUDISILL BLVD
19F049927 13:32:54 30 TRAFFIC STOP 76XX ILLINOIS RD
19F049929 13:35:47 25 PD ACCIDENT ILLINOIS RD & S THOMAS RD
19F049932 13:40:37 15 ASSIST 6XX CHARLOTTE AVE
19F049930 13:41:30 30 TRAFFIC STOP 9XX E WASHINGTON BLVD
19F049931 13:41:44 30 TRAFFIC STOP BROADWAY & STOPHLET ST
19F049934 13:45:42 50 BURGLARY 4XX W PAULDING RD
19F049933 13:45:59 26 PI ACCIDENT S HANNA ST & E DEWALD ST
19F049936 13:53:43 37 PARKING VIOL 50XX S HARRISON ST
19F049937 13:54:36 48 SUSPICIOUS W BERRY ST & FAIRFIELD AVE
19F049938 13:54:38 15 ASSIST W GUMP RD & DUNTON RD
19F049947 13:55:23 96 BATTERY 10XX RIDGEWOOD DR
19F049939 13:57:49 30 TRAFFIC STOP 313XX I 69 SB
19F049942 14:00:36 51 THEFT 29XX HOMESTEAD CT
19F049941 14:00:49 30 TRAFFIC STOP MAPLECREST RD & PAWAWNA DR
19F049943 14:04:57 30 TRAFFIC STOP S HANNA ST & OXFORD ST
19F049944 14:05:19 25 PD ACCIDENT E COLISEUM BLVD & N ANTHONY BLVD
19F049945 14:05:25 25 PD ACCIDENT 4XX W COLISEUM BLVD
19F049946 14:09:06 30 TRAFFIC STOP 4XX E WILDWOOD AVE
19F049961 14:15:59 18 WORK TRAFFIC WELLS ST & THIRD ST
19F049955 14:16:41 18 WORK TRAFFIC S ANTHONY BLVD & OXFORD ST
19F049953 14:16:48 66 MENTALLY ILL 31XX WINTER ST
19F049963 14:17:27 18 WORK TRAFFIC E STATE BLVD & LAVERNE AVE
19F049948 14:17:38 30 TRAFFIC STOP MAPLECREST RD & EVARD RD
19F049949 14:17:40 40A AUDIBLE 70XX CORLINE ST
19F049957 14:18:08 18 WORK TRAFFIC W PONTIAC ST & FAIRFIELD AVE
19F049950 14:19:49 51JO 58XX S ANTHONY BLVD
19F049960 14:21:08 23,113 43XX BOWSER AVE
19F049951 14:23:40 43 DISTURBANCE 72XX TURNSTONE BLVD
19F049952 14:24:34 30 TRAFFIC STOP OLD MILL RD & W FOSTER PKWY
19F049954 14:27:03 25 PD ACCIDENT E TILLMAN RD & S HANNA ST
19F049956 14:29:27 51JO 101XX LIMA RD
19F049958 14:33:35 65T SUICIDE THR 4XX W WASHINGTON BLVD
19F049959 14:35:28 48,35 11XX E STATE BLVD
19F049965 14:37:12 17 MOTOR CHECK 24XX CASS ST
19F049962 14:38:16 30 TRAFFIC STOP E LEWIS ST & S HANNA ST
19F049964 14:40:13 96 BATTERY 7XX WALNUT ST
19F049966 14:46:18 25 PD ACCIDENT W DUPONT RD & LIMA RD
19F049967 14:46:51 15 ASSIST 3XX S CORNELL CIR
19F049968 14:47:35 33,34 MAPLECREST RD & BOHDE TRL
19F049969 14:52:00 30 TRAFFIC STOP COLERICK ST & WINTER ST
19F049970 14:58:02 30 TRAFFIC STOP DEAN DR & ST JOE RD
19F049972 14:59:40 25 PD ACCIDENT PARNELL AVE & E COLISEUM BLVD
19F049971 15:00:33 30 TRAFFIC STOP MONO GENE DR & HESSEN CASSEL RD
19F049973 15:01:45 25 PD ACCIDENT S COLISEUM BLVD AND E WASHINGTON B
19F049982 15:03:53 102 THREATS E SUTTENFIELD AVE & WARSAW ST
19F049974 15:05:10 33,34 CAREW ST & LAKE AVE
19F049975 15:08:01 40A AUDIBLE 33XX VANTAGE POINT DR
19F049988 15:08:16 66 72 HOUR 25XX E DUPONT RD
19F049977 15:08:19 911 HANG UP 2XX E PETTIT AVE
19F049976 15:09:57 53 ARMED ROB 13XX SPRING ST
19F049978 15:10:51 25HS HIT SKIP 20XX BROADWAY
19F049979 15:12:00 64 NOT SEEN 49XX OLD MAYSVILLE RD
19F049980 15:13:34 40A AUDIBLE 102XX W DUPONT CIRCLE DR
19F049981 15:14:41 26 PI ACCIDENT CAREW ST & E STATE BLVD
19F050000 15:15:27 47 REMOVE ITEMS 28XX NORDHOLME AVE
19F049984 15:15:56 43,62 62XX MONARCH DR
19F049983 15:17:38 30 TRAFFIC STOP LILLIE ST & GRIER ST
19F049985 15:19:33 62 PARTY ARMED 54XX S CALHOUN ST
19F049999 15:22:57 39U UNAUTHORIZE 18XX CHEROKEE RD
19F049992 15:23:33 67 INDECENT 15XX W STATE BLVD
19F049987 15:25:22 46,96 43XX MIRADA DR
19F049986 15:25:55 37 PARKING VIOL 53XX ARCHWOOD LN
19F049989 15:26:03 25 PD ACCIDENT E COLISEUM BLVD & HARRY BAALS DR
19F049990 15:26:26 25 PD ACCIDENT E COLISEUM BLVD & N ANTHONY BLVD
19F049991 15:28:06 43 DISTURBANCE 20XX WOODHAVEN DR
19F050001 15:29:43 108 FOLLOWUP 2XX COUNTRY FOREST DR
19F049993 15:32:33 30 TRAFFIC STOP GRIER ST & HOLTON AVE
19F049998 15:32:43 14S SERVING WAR 40XX HOAGLAND AVE
19F049997 15:33:33 11C CAGE CAR 101XX LIMA RD
19F049994 15:34:53 EMS 29XX LILLIE ST
19F049995 15:36:00 33,34 HOBSON RD & IVY LEAGUE DR
19F049996 15:36:41 46 DOMESTIC 43XX STANDISH DR
19F050005 15:37:53 47 REMOVE ITEMS 23XX FAIRFIELD AVE
19F050008 15:47:25 23,113 2XX E PETTIT AVE
19F050002 15:48:03 911 HANG UP 7XX SNAPDRAGON CV
19F050003 15:51:38 22RC RECOVERY 29XX LILLIE ST
19F050006 15:52:30 17 MOTOR CHECK 6XX HUFFMAN ST
19F050004 15:53:38 40A AUDIBLE 16XX CASS ST
19F050007 15:58:51 39R STOLEN RECO 5XX W JEFFERSON BLVD
19F050009 15:59:48 30 TRAFFIC STOP E RUDISILL BLVD & EUCLID AVE
19F050011 16:03:53 40A AUDIBLE 43XX PLAZA DR
19F050010 16:04:41 99 NARCOTICS XX E MAIN ST
19F050012 16:08:16 25 PD ACCIDENT E CALIFORNIA RD & PARNELL AVE
19F050013 16:08:59 25 PD ACCIDENT W DUPONT RD & SR 3
19F050015 16:10:12 46,96 1XX E SUTTENFIELD AVE
19F050014 16:10:32 96 BATTERY 30XX E PONTIAC ST
19F050016 16:15:02 30 TRAFFIC STOP W CREIGHTON AVE & BROADWAY
19F050017 16:16:23 1 MEET 34XX SHERMAN BLVD
19F050018 16:18:01 46 DOMESTIC 33XX CONGRESS AVE
19F050019 16:19:17 EMS 83XX BRIDGEWAY LN
19F050025 16:22:52 27 RECKLESS DRI W DUPONT RD & LIMA RD
19F050020 16:23:30 103 UNWANTED 9XX E WASHINGTON BLVD
19F050021 16:26:29 51 THEFT 67XX HILMER CT
19F050023 16:27:51 63 CONTACT 104XX MAYSVILLE RD
19F050022 16:28:25 46 DOMESTIC 25XX BRIGHTWOOD CT
19F050024 16:31:57 911 HANG UP 79XX SERENITY DR
19F050026 16:32:48 16,97 18XX HINTON DR
19F050028 16:39:33 26 PI ACCIDENT BEACON ST & E STATE BLVD
19F050027 16:39:57 30 TRAFFIC STOP 5XX TENNESSEE AVE
19F050029 16:41:34 43 DISTURBANCE 67XX LIMA RD
19F050030 16:42:22 22RN RUNAWAY 54XX HIGHVIEW DR
19F050032 16:44:33 66 MENTALLY ILL 86XX CASTLE CREEK DR
19F050031 16:44:51 26HS PI HITSKIP 8XX DREXEL AVE
19F050033 16:45:45 25 PD ACCIDENT BEACON ST & E STATE BLVD
19F050034 16:45:52 30 TRAFFIC STOP MAPLE AVE & THOMPSON AVE
19F050035 16:53:11 129 33XX CONGRESS AVE
19F050042 16:53:16 11C CAGE CAR 17XX APPLE GLEN BLVD
19F050036 16:55:35 30 TRAFFIC STOP COLDWATER RD & E WASHINGTON CENTER
19F050038 16:55:41 46 DOMESTIC 29XX OAKWOOD DR
19F050037 16:56:36 48 SUSPICIOUS GOSHEN AVE & POINSETTE DR
19F050048 16:57:11 46 DOMESTIC 27XX W WASHINGTON CENTER RD
19F050040 16:59:12 27 RECKLESS DRI E RUDISILL BLVD & S HANNA ST
19F050041 16:59:38 48 SUSPICIOUS 15XX GOSHEN AVE
19F050039 17:00:09 23 VANDALISM 50XX LESTER DR
19F050043 17:00:29 51JO 39XX S CALHOUN ST
19F050046 17:00:38 25 PD ACCIDENT E DUPONT RD & DIEBOLD RD
19F050044 17:02:50 30 TRAFFIC STOP W MAIN ST & S HARRISON ST
19F050045 17:03:20 33,34 REED RD & ST JOE CENTER RD
19F050047 17:03:33 43 DISTURBANCE E FOURTH ST & N CALHOUN ST
19F050049 17:06:51 63 CONTACT MAPLECREST RD & STELLHORN RD
19F050063 17:07:39 37 PARKING VIOL S LAFAYETTE ST & DALMAN AVE
19F050052 17:11:12 66 MENTALLY ILL 29XX WESTBROOK DR
19F050050 17:12:14 26 PI ACCIDENT FAIRFIELD AVE & W PACKARD AVE
19F050051 17:14:13 40P PANIC ALARM 53XX STANDISH DR
19F050054 17:18:50 1 MEET 10XX N COLISEUM BLVD
19F050055 17:19:51 911 HANG UP 25XX BOWSER AVE
19F050053 17:19:56 48,36 HOBSON RD & E STATE BLVD
19F050056 17:23:20 TOW HOBSON RD & E STATE BLVD
19F050057 17:26:08 46 DOMESTIC 36XX ROBINWOOD DR
19F050058 17:27:20 25 PD ACCIDENT S ANTHONY BLVD & E PAULDING RD
19F050059 17:35:00 25 PD ACCIDENT E WASHINGTON CENTER RD & N CLINTON
19F050061 17:38:14 46,96 52XX REED ST
19F050060 17:38:48 25 PD ACCIDENT ILLINOIS RD & W JEFFERSON BLVD
19F050062 17:40:22 43 DISTURBANCE 49XX BADE DR
19F050065 17:44:04 103 UNWANTED E COLISEUM BLVD & PARNELL AVE
19F050064 17:44:51 40A AUDIBLE 39XX W JEFFERSON BLVD
19F050066 17:49:32 46 DOMESTIC 24XX CHESTNUT ST
19F050067 17:50:45 46 DOMESTIC 21XX POINT WOOD RD
19F050074 17:52:32 45 NEIGHBORHOOD 69XX LOTUS BLOSSOM PL
19F050068 17:54:35 22I JUV INVEST HICKORY TREE RD & W DUPONT RD
19F050069 17:57:13 23 VANDALISM 10XX LINCOLN AVE
19F050072 17:58:29 22N CHILD NEGLE 14XX BETHANY LN
19F050070 17:59:21 25HS HIT SKIP 18XX PAPERMILL XING
19F050071 17:59:56 43 DISTURBANCE 63XX W JEFFERSON BLVD
19F050073 18:02:31 43 DISTURBANCE 7XX BAXTER ST
19F050075 18:03:02 EMS 5XX HENDRICKS ST
19F050076 18:18:38 65T SUICIDE THR 29XX GOSHEN RD
19F050078 18:24:50 46 DOMESTIC 22XX GILLMORE DR
19F050079 18:31:16 51,35 MAPLECREST RD & ROTHMAN RD
19F050080 18:32:23 22I JUV INVEST 22XX OLIVER ST
19F050081 18:34:57 30 TRAFFIC STOP BROADWAY & PARKVIEW AVE
19F050082 18:36:45 43 DISTURBANCE 42XX BLUFFTON RD
19F050083 18:42:14 15 ASSIST 26XX RIVER COVE TRL
19F050084 18:46:00 EMS 51XX WELWYN CT
19F050085 18:49:57 30 TRAFFIC STOP W WASHINGTON CENTER RD & CHALLENGE
19F050087 18:51:38 911 HANG UP 25XX CAROLINE ST
19F050090 18:52:32 63 CONTACT 58XX CHALLENGER PKWY
19F050086 18:52:33 44 NUISANCE BRECONSHIRE DR & GETZ RD
19F050088 18:58:46 20 PROBLEM UNK 25XX BOWSER AVE
19F050089 18:58:54 44LM 6XX STRATTON RD
19F050091 18:59:50 48 SUSPICIOUS 9XX E COLISEUM BLVD
19F050092 19:00:20 43 DISTURBANCE 62XX STELLHORN RD
19F050093 19:01:23 103 UNWANTED 9XX DAYTON AVE
19F050094 19:03:17 48,36 W COLISEUM BLVD & GOSHEN RD
19F050095 19:07:24 48,36 68XX BLUE MIST RD
19F050097 19:10:26 22I JUV INVEST 42XX CASA VERDE DR
19F050096 19:10:46 48 SUSPICIOUS 22XX KENWOOD AVE
19F050098 19:14:03 30 TRAFFIC STOP PAUL SHAFFER DR & E COLISEUM BLVD
19F050099 19:16:42 40A AUDIBLE 6XX S CALHOUN ST
19F050100 19:22:05 46 DOMESTIC 38XX WAYNE TRACE
19F050101 19:24:39 30 TRAFFIC STOP S LAFAYETTE ST & CONGRESS AVE
19F050102 19:25:52 48 SUSPICIOUS 45XX N CLINTON ST
19F050103 19:26:47 911 HANG UP 5XX CEDAR GLEN DR
19F050104 19:45:32 38A LOST/ARTICL 101XX LIMA RD
19F050105 19:48:35 46 DOMESTIC 4XX E DEWALD ST
19F050107 19:49:47 43 DISTURBANCE 53XX COLDWATER RD
19F050106 19:50:04 30 TRAFFIC STOP BROADWAY & TAYLOR ST
19F050108 19:50:24 46 DOMESTIC 36XX S HARRISON ST
19F050109 19:51:53 1 MEET W STATE BLVD & WELLS ST
19F050110 19:53:07 30 TRAFFIC STOP W JEFFERSON BLVD & TIME CORNERS VI
19F050112 19:54:26 EMS 4XX E CAMDEN DR
19F050111 19:55:16 43 DISTURBANCE 40XX BOWSER AVE
19F050113 19:58:03 33,34 E STATE BLVD & N CLINTON ST
19F050114 20:01:00 30 TRAFFIC STOP N COLISEUM BLVD & DELAWARE AVE
19F050120 20:03:01 11C CAGE CAR 55XX COLDWATER RD
19F050115 20:07:36 37 PARKING VIOL 20XX WOODHAVEN DR
19F050116 20:08:10 1 MEET 25XX LILLIE ST
19F050117 20:12:32 51 THEFT 42XX COLDWATER RD
19F050118 20:12:59 40A AUDIBLE 92XX COLCHESTER TER
19F050119 20:13:41 65A SUICIDE ATT 110XX BETHEL RD
19F050121 20:28:48 37 PARKING VIOL 32XX CLINTON CT
19F050122 20:34:19 43 DISTURBANCE 62XX LIMA RD
19F050124 20:34:29 51 THEFT 12XX EMILY ST
19F050123 20:42:32 30 TRAFFIC STOP FAIRFIELD AVE & BEECHWOOD DR
19F050127 20:46:05 43 DISTURBANCE 78XX WEYMOUTH CT
19F050125 20:48:20 96 BATTERY 46XX TRIER RD
19F050126 20:49:50 1 MEET 6XX W JEFFERSON BLVD
19F050128 20:49:58 27 RECKLESS DRI 48XX BELVIDERE DR
19F050131 20:56:06 66 MENTALLY ILL 8XX THIRD ST
19F050132 20:59:11 16,97 61XX BUNT DR
19F050130 20:59:35 44LM 67XX RAMBLEWOOD DR
19F050129 20:59:46 102,TX THREATS 36XX S BARR ST
19F050133 21:04:46 43 DISTURBANCE 12XX BARTHOLD ST
19F050134 21:07:46 48 SUSPICIOUS 1XX E BRANNING AVE
19F050135 21:09:46 40 ALARM 16XX W COOK RD
19F050136 21:12:08 43 DISTURBANCE 1XX LEXINGTON AVE
19F050137 21:12:35 22RN RUNAWAY 69XX SALGE DR
19F050138 21:16:22 25 PD ACCIDENT 60XX HESSEN CASSEL RD
19F050143 21:18:06 44LM 12XX E STATE BLVD
19F050139 21:18:40 48,36 47XX TRIER RD
19F050140 21:19:23 48 SUSPICIOUS 41XX MARLTON DR
19F050142 21:19:48 103 UNWANTED 33XX FRUEHAUF DR
19F050141 21:19:50 20 PROBLEM UNK 35XX PLAZA DR
19F050145 21:21:44 43 DISTURBANCE 7XX GROWTH AVE
19F050144 21:22:30 30 TRAFFIC STOP 11XX I 469 SB
19F050156 21:23:55 46 DOMESTIC 25XX SUGAR TREE DR
19F050146 21:26:01 30 TRAFFIC STOP N CLINTON ST & ELIZABETH ST
19F050148 21:30:14 103 UNWANTED 44XX BLUFFTON RD
19F050147 21:33:03 46 DOMESTIC 2XX W FERNHILL AVE
19F050149 21:33:23 911 HANG UP 34XX COPPER HILL RUN
19F050150 21:33:23 25HS HIT SKIP E RUDISILL BLVD & S CLINTON ST
19F050151 21:34:30 33,34 MAYSVILLE RD & STELLHORN RD
19F050152 21:37:14 30 TRAFFIC STOP COLDWATER RD & E WASHINGTON CENTER
19F050153 21:41:53 53 ARMED ROB 21XX HOBSON RD
19F050154 21:51:23 46 DOMESTIC 41XX HOAGLAND AVE
19F050157 21:59:20 30 TRAFFIC STOP 308XX I 69 NB
19F050155 22:00:08 30 TRAFFIC STOP W COLISEUM BLVD & SPEEDWAY DR
19F050158 22:04:06 40A AUDIBLE 102XX MAYSVILLE RD
19F050159 22:09:17 48,36 39XX HESSEN CASSEL RD
19F050162 22:12:28 46 DOMESTIC 17XX OAKLAND ST
19F050160 22:13:57 30 TRAFFIC STOP 315XX I 69 NB
19F050161 22:15:59 43 DISTURBANCE 32XX S MONROE ST
19F050163 22:17:17 22I JUV INVEST 27XX E PAULDING RD
19F050164 22:18:51 43 DISTURBANCE 43XX OAKHURST DR
19F050166 22:23:37 41 MAN DOWN E PONTIAC ST & S CALHOUN ST
19F050165 22:23:43 1 MEET 3XX E COLISEUM BLVD
19F050167 22:26:38 48 SUSPICIOUS 29XX GOSHEN RD
19F050169 22:27:07 96 BATTERY 111XX PARKVIEW PLAZA DR
19F050168 22:28:46 30 TRAFFIC STOP S CALHOUN ST & W DARROW AVE
19F050170 22:32:52 911 HANG UP S HANNA ST & E PONTIAC ST
19F050214 22:33:25 44LM 21XX BROADMOOR AVE
19F050172 22:35:54 44 NUISANCE LILLIE ST & E PONTIAC ST
19F050174 22:37:47 73 WALK AWAY 19XX CAREW ST
19F050171 22:39:33 46 DOMESTIC 44XX SPATZ AVE
19F050173 22:42:00 30 TRAFFIC STOP HUESTIS AVE & BROADWAY
19F050176 22:45:15 46 DOMESTIC 63XX LIMA RD
19F050175 22:45:52 129 74XX KERN VALLEY DR
19F050177 22:48:29 30 TRAFFIC STOP E COLISEUM BLVD & CRESCENT AVE
19F050178 22:50:50 30 TRAFFIC STOP TAYLOR ST & BROOKLYN AVE
19F050179 22:50:53 30 TRAFFIC STOP S LAFAYETTE ST & GLENCOE AVE
19F050180 22:52:29 43 DISTURBANCE 37XX E WASHINGTON BLVD
19F050181 22:55:03 30 TRAFFIC STOP BENNINGTON DR & BENHAM DR
19F050182 22:55:19 129 BENNINGTON DR & BENHAM DR
19F050184 22:55:23 44 NUISANCE KINSMOOR AVE & FAIRFIELD AVE
19F050183 22:57:33 30 TRAFFIC STOP 44XX ILLINOIS RD
19F050185 23:00:12 30 TRAFFIC STOP E PONTIAC ST & S HANNA ST
19F050186 23:03:40 48,36 64XX E STATE BLVD
19F050187 23:04:28 30 TRAFFIC STOP S HANNA ST & DREXEL AVE
19F050188 23:04:31 30 TRAFFIC STOP 44XX WERLING DR
19F050191 23:05:41 48 SUSPICIOUS 63XX LIMA RD
19F050189 23:07:01 40 ALARM 20XX E PONTIAC ST
19F050190 23:07:38 30 TRAFFIC STOP WALLYWOOD AVE & WELLS ST
19F050192 23:08:39 30 TRAFFIC STOP W RUDISILL BLVD & OLD MILL RD
19F050196 23:08:42 46,96 41XX TACOMA AVE
19F050193 23:08:48 30 TRAFFIC STOP E COLISEUM BLVD & CRESCENT AVE
19F050194 23:09:27 30 TRAFFIC STOP CRESCENT AVE & E COLISEUM BLVD
19F050195 23:11:27 30 TRAFFIC STOP CAPITOL AVE & WERLING DR
19F050197 23:13:38 30 TRAFFIC STOP 10XX N COLISEUM BLVD
19F050198 23:16:09 30 TRAFFIC STOP HOLTON AVE & BAXTER ST
19F050199 23:16:21 30 TRAFFIC STOP ALEXANDER ST & E PONTIAC ST
19F050201 23:18:19 30 TRAFFIC STOP E WAYNE TRACE & LEE ST
19F050206 23:20:25 1 MEET 27XX MILLBROOK DR
19F050202 23:21:26 30 TRAFFIC STOP S ANTHONY BLVD & E RUDISILL BLVD
19F050203 23:22:47 30 TRAFFIC STOP CASS ST & W STATE BLVD
19F050204 23:23:16 30 TRAFFIC STOP BROADWAY & LINCOLN AVE
19F050205 23:24:24 30 TRAFFIC STOP MCKINNIE AVE & SPATZ AVE
19F050209 23:26:30 40A AUDIBLE 33XX S ANTHONY BLVD
19F050210 23:26:36 63 CONTACT 32XX E STATE BLVD
19F050207 23:26:52 103 UNWANTED 23XX E PONTIAC ST
19F050211 23:28:11 EMS 35XX HARVESTER AVE
19F050208 23:28:41 30 TRAFFIC STOP S COLISEUM BLVD & REYNOLDS ST
19F050213 23:28:50 48,36 29XX SANDPOINT RD
19F050212 23:29:48 30 TRAFFIC STOP 32XX EUCLID AVE
19F050215 23:34:33 41 MAN DOWN 43XX S HANNA ST
19F050216 23:36:39 48,36 71XX BOHNKE DR
19F050217 23:37:28 40A AUDIBLE 12XX PROGRESS RD
19F050220 23:37:42 46,96 2XX W FAIRFAX AVE
19F050218 23:38:11 33J LOCKED OUT 67XX E STATE BLVD
19F050222 23:38:16 28 DUI W STATE BLVD & SHERMAN BLVD
19F050219 23:39:19 55 FIGHT 40XX S MONROE ST
19F050221 23:43:08 30 TRAFFIC STOP S LAFAYETTE ST & WIEBKE ST
19F050223 23:43:58 30 TRAFFIC STOP FAIRFIELD AVE & W MAIN ST
19F050224 23:45:51 43 DISTURBANCE ONTARIO ST & BROOKLYN AVE
19F050225 23:49:18 41,36 3XX W JEFFERSON BLVD
19F050226 23:50:18 48 SUSPICIOUS 2XX COUNTRY FOREST DR
19F050227 23:54:21 30 TRAFFIC STOP S LAFAYETTE ST & E BRACKENRIDGE ST
19F050229 23:56:10 40A AUDIBLE 24XX GOSHEN RD
19F050228 23:56:21 30 TRAFFIC STOP CONGRESS AVE & WEISSER PARK AVE
19F050230 23:56:47 30 TRAFFIC STOP HAMILTON AVE & S HANNA ST
19F050231 23:59:08 30 TRAFFIC STOP 89XX TRIER RD